User: anonymous   Login
Location: Iesi
(43.5167°N, 13.2333°E)
Time: 05:05:55
(UTC+00:00)
Language:

USA 238 - Orbit

View from above orbital plane
View from above orbital plane
View from above satellite
View from above satellite

Ground track
Ground track

The orbit data is extracted from the following two-line orbital elements,

1 38758U 12048A   20302.17453127 0.00000000  00000-0  00000-0 0    06
2 38758  63.4276  53.5387 0133940   0.5464 359.4536 13.40810765    01
Epoch (UTC): 28 October 2020 04:11:19
Eccentricity: 0.0133940
inclination: 63.4276°
perigee height: 1006 km
apogee height: 1206 km
right ascension of ascending node: 53.5387°
argument of perigee: 0.5464°
revolutions per day: 13.40810765
mean anomaly at epoch: 359.4536°
orbit number at epoch: 0

The dashed part of the orbit path shows where the satellite is in the earth's shadow,  

DLR